Location: Unspecified
(0.0000°N, 0.0000°E)
Time: 08:45:36
(UTC+00:00)

Transit 4A - Pass Details

Date: 07 October 2023
Orbit: 864 x 979 km, 66.8° (Epoch: 05 December)

Event Time Altitude Azimuth Distance (km) Brightness Sun altitude
Rises 09:29:57 0° 243° (WSW) 3,575 10.7 55.1°
Reaches altitude 10° 09:35:10 10° 280° (W) 2,660 10.1 56.4°
Maximum altitude 09:36:18 11° 291° (WNW) 2,629 10.1 56.7°
Drops below altitude 10° 09:37:28 10° 302° (WNW) 2,672 10.1 57.0°
Sets 09:42:48 0° 340° (NNW) 3,639 10.8 58.3°
